• In Deutschland
  • Länderverzeichnis
  • Für 7 Tage
  • Wassertemperatur
  • Satellitenkarten
  • Wetterkarte
  • Widgets
  • user-avatar
    Anmelden

    Stündliche Wetter Galata

    Heute, 17 August, Donnerstag

    Zeit Temperatur Niederschläge Wind Luftdruck Luftfeuchtigkeit
    00:00 +23°C° 0 mm 6 m/S 753 mmHg 45%
    01:00 +23°C° 0 mm 6 m/S 753 mmHg 45%
    02:00 +22°C° 0 mm 6 m/S 753 mmHg 42%
    03:00 +22°C° 0,1 mm 6 m/S 753 mmHg 43%
    04:00 +21°C° 0,1 mm 6 m/S 753 mmHg 44%
    05:00 +21°C° 0,1 mm 6 m/S 753 mmHg 44%
    06:00 +23°C° 0 mm 6 m/S 753 mmHg 43%
    07:00 +24°C° 0 mm 6 m/S 753 mmHg 42%
    08:00 +27°C° 0 mm 7 m/S 753 mmHg 39%
    09:00 +29°C° 0 mm 7 m/S 754 mmHg 35%
    10:00 +32°C° 0 mm 7 m/S 754 mmHg 30%
    11:00 +34°C° 0 mm 7 m/S 754 mmHg 26%
    12:00 +34°C° 0 mm 7 m/S 754 mmHg 26%
    13:00 +35°C° 0 mm 7 m/S 753 mmHg 26%
    14:00 +35°C° 0 mm 7 m/S 754 mmHg 26%
    15:00 +35°C° 0 mm 7 m/S 754 mmHg 27%
    16:00 +34°C° 0 mm 7 m/S 754 mmHg 28%
    17:00 +34°C° 0 mm 7 m/S 754 mmHg 29%
    18:00 +30°C° 0 mm 6 m/S 754 mmHg 34%
    19:00 +28°C° 0 mm 5 m/S 754 mmHg 39%
    20:00 +26°C° 0 mm 4 m/S 754 mmHg 44%
    21:00 +25°C° 0 mm 4 m/S 754 mmHg 44%
    22:00 +25°C° 0 mm 4 m/S 754 mmHg 44%
    23:00 +23°C° 0 mm 4 m/S 754 mmHg 44%

    Morgen, 18 August, Freitag

    Zeit Temperatur Niederschläge Wind Luftdruck Luftfeuchtigkeit
    00:00 +23°C° 0 mm 4 m/S 754 mmHg 43%
    01:00 +23°C° 0 mm 4 m/S 754 mmHg 41%
    02:00 +23°C° 0 mm 5 m/S 754 mmHg 40%
    03:00 +22°C° 0 mm 5 m/S 754 mmHg 42%
    04:00 +22°C° 0 mm 5 m/S 754 mmHg 43%
    05:00 +22°C° 0 mm 5 m/S 754 mmHg 45%
    06:00 +23°C° 0 mm 5 m/S 754 mmHg 44%
    07:00 +26°C° 0 mm 5 m/S 754 mmHg 42%
    08:00 +27°C° 0 mm 5 m/S 755 mmHg 40%
    09:00 +30°C° 0 mm 5 m/S 755 mmHg 35%
    10:00 +33°C° 0 mm 5 m/S 755 mmHg 30%
    11:00 +35°C° 0 mm 5 m/S 755 mmHg 25%
    12:00 +35°C° 0 mm 5 m/S 755 mmHg 25%
    13:00 +36°C° 0 mm 6 m/S 755 mmHg 24%
    14:00 +36°C° 0 mm 6 m/S 754 mmHg 24%
    15:00 +35°C° 0 mm 6 m/S 754 mmHg 27%
    16:00 +34°C° 0 mm 6 m/S 754 mmHg 29%
    17:00 +34°C° 0 mm 6 m/S 754 mmHg 32%
    18:00 +30°C° 0 mm 5 m/S 754 mmHg 43%
    19:00 +28°C° 0 mm 5 m/S 754 mmHg 55%
    20:00 +25°C° 0 mm 4 m/S 755 mmHg 66%
    21:00 +23°C° 0 mm 4 m/S 755 mmHg 69%
    22:00 +24°C° 0 mm 3 m/S 755 mmHg 71%
    23:00 +22°C° 0 mm 3 m/S 755 mmHg 74%

    übermorgen, 19 August, Samstag

    Zeit Temperatur Niederschläge Wind Luftdruck Luftfeuchtigkeit
    00:00 +22°C° 0 mm 3 m/S 755 mmHg 70%
    01:00 +21°C° 0 mm 3 m/S 755 mmHg 66%
    02:00 +21°C° 0 mm 4 m/S 754 mmHg 62%
    03:00 +21°C° 0 mm 4 m/S 754 mmHg 60%
    04:00 +21°C° 0 mm 4 m/S 754 mmHg 59%
    05:00 +21°C° 0 mm 5 m/S 754 mmHg 58%
    06:00 +23°C° 0 mm 5 m/S 754 mmHg 53%
    07:00 +25°C° 0 mm 5 m/S 754 mmHg 48%
    08:00 +27°C° 0 mm 6 m/S 754 mmHg 43%
    09:00 +29°C° 0 mm 5 m/S 754 mmHg 38%
    10:00 +32°C° 0 mm 5 m/S 754 mmHg 32%
    11:00 +34°C° 0 mm 5 m/S 754 mmHg 26%
    12:00 +35°C° 0 mm 5 m/S 754 mmHg 26%
    13:00 +35°C° 0 mm 5 m/S 753 mmHg 26%
    14:00 +36°C° 0 mm 5 m/S 753 mmHg 26%
    15:00 +35°C° 0 mm 5 m/S 753 mmHg 29%
    16:00 +34°C° 0 mm 5 m/S 753 mmHg 32%
    17:00 +34°C° 0 mm 5 m/S 753 mmHg 35%
    18:00 +30°C° 0 mm 4 m/S 753 mmHg 45%
    19:00 +28°C° 0 mm 4 m/S 753 mmHg 55%
    20:00 +26°C° 0 mm 3 m/S 753 mmHg 65%
    21:00 +25°C° 0 mm 3 m/S 753 mmHg 67%
    22:00 +24°C° 0 mm 2 m/S 754 mmHg 70%
    23:00 +24°C° 0 mm 2 m/S 754 mmHg 73%

    20 August, Sonntag

    Zeit Temperatur Niederschläge Wind Luftdruck Luftfeuchtigkeit
    00:00 +23°C° 0 mm 2 m/S 754 mmHg 72%
    01:00 +22°C° 0 mm 3 m/S 753 mmHg 72%
    02:00 +22°C° 0 mm 3 m/S 753 mmHg 71%
    03:00 +21°C° 0 mm 3 m/S 753 mmHg 71%
    04:00 +21°C° 0 mm 3 m/S 753 mmHg 71%
    05:00 +21°C° 0 mm 3 m/S 753 mmHg 71%
    06:00 +23°C° 0 mm 4 m/S 753 mmHg 64%
    07:00 +26°C° 0 mm 4 m/S 753 mmHg 57%
    08:00 +27°C° 0 mm 4 m/S 754 mmHg 50%
    09:00 +29°C° 0 mm 4 m/S 754 mmHg 45%
    10:00 +32°C° 0 mm 4 m/S 754 mmHg 39%
    11:00 +34°C° 0 mm 4 m/S 754 mmHg 34%
    12:00 +35°C° 0 mm 4 m/S 753 mmHg 33%
    13:00 +35°C° 0 mm 4 m/S 753 mmHg 32%
    14:00 +36°C° 0 mm 4 m/S 753 mmHg 30%
    15:00 +35°C° 0 mm 4 m/S 752 mmHg 33%
    16:00 +35°C° 0 mm 4 m/S 752 mmHg 36%
    17:00 +34°C° 0 mm 4 m/S 752 mmHg 39%
    18:00 +30°C° 0 mm 3 m/S 752 mmHg 51%
    19:00 +28°C° 0 mm 2 m/S 752 mmHg 63%
    20:00 +25°C° 0 mm 2 m/S 752 mmHg 75%
    21:00 +25°C° 0 mm 1 m/S 752 mmHg 78%
    22:00 +24°C° 0 mm 1 m/S 752 mmHg 81%
    23:00 +21°C° 0 mm 0 m/S 752 mmHg 84%

    21 August, Montag

    Zeit Temperatur Niederschläge Wind Luftdruck Luftfeuchtigkeit
    00:00 +23°C° 0 mm 1 m/S 752 mmHg 82%
    01:00 +23°C° 0 mm 1 m/S 752 mmHg 80%
    02:00 +23°C° 0 mm 1 m/S 752 mmHg 78%
    03:00 +23°C° 0 mm 2 m/S 752 mmHg 79%
    04:00 +21°C° 0 mm 3 m/S 752 mmHg 79%
    05:00 +21°C° 0 mm 3 m/S 752 mmHg 79%
    06:00 +22°C° 0 mm 4 m/S 752 mmHg 74%
    07:00 +23°C° 0 mm 5 m/S 752 mmHg 69%
    08:00 +24°C° 0 mm 6 m/S 753 mmHg 63%
    09:00 +27°C° 0 mm 5 m/S 753 mmHg 57%
    10:00 +29°C° 0 mm 4 m/S 752 mmHg 52%
    11:00 +31°C° 0 mm 3 m/S 752 mmHg 46%
    12:00 +31°C° 0,1 mm 3 m/S 752 mmHg 44%
    13:00 +33°C° 0,1 mm 3 m/S 752 mmHg 42%
    14:00 +34°C° 0,1 mm 3 m/S 751 mmHg 40%
    15:00 +33°C° 0 mm 3 m/S 751 mmHg 43%
    16:00 +31°C° 0 mm 3 m/S 751 mmHg 47%
    17:00 +30°C° 0 mm 2 m/S 751 mmHg 50%
    18:00 +28°C° 0,4 mm 3 m/S 751 mmHg 56%
    19:00 +26°C° 0,4 mm 3 m/S 751 mmHg 62%
    20:00 +25°C° 0,4 mm 4 m/S 752 mmHg 68%
    21:00 +22°C° 0,7 mm 5 m/S 752 mmHg 72%
    22:00 +20°C° 0,7 mm 6 m/S 753 mmHg 76%
    23:00 +17°C° 0,7 mm 8 m/S 753 mmHg 80%

    22 August, Dienstag

    Zeit Temperatur Niederschläge Wind Luftdruck Luftfeuchtigkeit
    00:00 +17°C° 0,4 mm 7 m/S 753 mmHg 83%
    01:00 +16°C° 0,4 mm 7 m/S 754 mmHg 85%
    02:00 +16°C° 0,4 mm 6 m/S 754 mmHg 88%
    03:00 +16°C° 0,1 mm 6 m/S 754 mmHg 85%
    04:00 +15°C° 0,1 mm 6 m/S 754 mmHg 81%
    05:00 +15°C° 0,1 mm 7 m/S 755 mmHg 78%
    06:00 +16°C° 0 mm 7 m/S 755 mmHg 72%
    07:00 +18°C° 0 mm 8 m/S 755 mmHg 66%
    08:00 +20°C° 0 mm 8 m/S 756 mmHg 60%
    09:00 +21°C° 0 mm 8 m/S 756 mmHg 53%
    10:00 +23°C° 0 mm 7 m/S 756 mmHg 47%
    11:00 +26°C° 0 mm 6 m/S 756 mmHg 40%
    12:00 +27°C° 0 mm 6 m/S 756 mmHg 38%
    13:00 +28°C° 0 mm 5 m/S 755 mmHg 36%
    14:00 +29°C° 0 mm 4 m/S 755 mmHg 34%
    15:00 +28°C° 0 mm 4 m/S 755 mmHg 35%
    16:00 +28°C° 0 mm 3 m/S 755 mmHg 37%
    17:00 +28°C° 0 mm 3 m/S 755 mmHg 38%
    18:00 +26°C° 0 mm 3 m/S 755 mmHg 43%
    19:00 +24°C° 0 mm 3 m/S 755 mmHg 47%
    20:00 +21°C° 0 mm 2 m/S 756 mmHg 52%
    21:00 +21°C° 0 mm 2 m/S 756 mmHg 54%
    22:00 +20°C° 0 mm 2 m/S 756 mmHg 56%
    23:00 +20°C° 0 mm 2 m/S 756 mmHg 59%
    Mehr zeigen